星链-33908 (STARLINK-33908)

导读 | 豆包AI

STARLINK-33908是美国星链计划的卫星,星链计划由太空探索技术公司SpaceX主导推进,该卫星于2025年4月28日发射,属于星链低轨互联网卫星星座的组成部分,主要用于为全球范围内用户提供覆盖广泛、低延迟的高速卫星互联网接入服务,补全星链星座的服务覆盖能力,强化星座整体运行稳定性。

Basic Information
目录编号:
63700
目录名称:
STARLINK-33908
国际标识:
2025-087D
轨道中心:
EARTH
卫星名称:
星链-33908
卫星全名:
星链-33908 (STARLINK-33908)
卫星状态:
在轨 (已飞行320 天)
发射日期:
2025-04-28 UTC
国别 :
美国 (US)
星等 :
--
Orbit Information
数据来源 国际轨道数据 AOE轨道数据
星历时间 2026-03-14T22:36:34+0800
7小时前
查看轨道信息
2026-03-11T05:00:00+0800
4天前
查看轨道信息
半长轴 6853.177km 6853.425km
偏心率 0.0001339 0.0001437
轨道倾角 53.158° 53.158°
近地点辐角 87.539° 35.736°
升交点赤经 196.644° 213.988°
平近点角 272.577° 264.672°
近地点 474.122km 474.303km
远地点 475.958km 476.273km
周期 94.102分钟 94.107分钟
每日圈数 15.302587 15.301757
Detailed Information
固有亮度:
5
最大亮度:
2.5
卫星平台:
Starlink V1.0
覆盖范围:
全球
运营商:
太空探索技术公司
运营商所在国:
美国
制造商(研发单位):
太空探索技术公司
制造商所在国:
美国
使用方式:
暂无
Satellite Introduction
Starlink 计划是 SpaceX 推出的全球卫星互联网项目,通过发射低轨道卫星,为全球尤其是偏远地区提供高速、低延迟的互联网服务。自 2019 年起,Starlink 已部署数千颗卫星,旨在缩小全球数字鸿沟,推动互联网普及。该项目还为军事、航空等行业提供通信支持,带来广泛经济效益。
2D Orbit Map
3D Orbit Map
Orbit Altitude Analysis Chart
Orbit Inclination Analysis Chart
Orbit Comprehensive Analysis Chart
View Comprehensive Chart